,,Stat5,,Stat1,,Stat2,,Stat3,,Stat4,,Wind1,,Wind1,
time,status,PA1M_AVG,status,PR1M_SUM,status,RH1M_AVG,status,SR1M_AVG,status,TA1M_AVG,status,W1dAve1m,status,W1sAve1m,
2000-10-04, 00:00:01,VALID,917.899,VALID,0,VALID,98.4273,VALID,0,VALID,19.5732,VALID,92,VALID,0,
2000-10-04, 00:01:00,VALID,917.875,VALID,0,VALID,98.4336,VALID,0,VALID,19.5827,VALID,92,VALID,0,
2000-10-04, 00:02:00,VALID,917.866,VALID,0,VALID,98.3955,VALID,0,VALID,19.5924,VALID,92,VALID,0,
2000-10-04, 00:03:00,VALID,917.86,VALID,0,VALID,98.3917,VALID,-0.0169808,VALID,19.5924,VALID,92,VALID,0,
2000-10-04, 00:04:00,VALID,917.857,VALID,0,VALID,98.379,VALID,0,VALID,19.5921,VALID,92,VALID,0,
2000-10-04, 00:05:00,VALID,917.883,VALID,0,VALID,98.3777,VALID,-0.0509425,VALID,19.6085,VALID,92,VALID,0,
2000-10-04, 00:06:00,VALID,917.888,VALID,0,VALID,98.3675,VALID,-0.0339617,VALID,19.6257,VALID,92,VALID,0,
2000-10-04, 00:07:00,VALID,917.914,VALID,0,VALID,98.3751,VALID,0,VALID,19.6252,VALID,92,VALID,0,
2000-10-04, 00:08:00,VALID,917.904,VALID,0,VALID,98.3815,VALID,0,VALID,19.6475,VALID,92,VALID,0,
2000-10-04, 00:09:00,VALID,917.895,VALID,0,VALID,98.3993,VALID,-0.0169808,VALID,19.6602,VALID,92,VALID,0,
2000-10-04, 00:10:00,VALID,917.873,VALID,0,VALID,98.3434,VALID,-0.0169808,VALID,19.6637,VALID,92,VALID,0,
2000-10-04, 00:11:00,VALID,917.841,VALID,0,VALID,98.3561,VALID,-0.0169808,VALID,19.6803,VALID,92,VALID,0,
2000-10-04, 00:12:00,VALID,917.83,VALID,0,VALID,98.351,VALID,0,VALID,19.6865,VALID,92,VALID,0,
2000-10-04, 00:13:00,VALID,917.815,VALID,0,VALID,98.3167,VALID,0,VALID,19.6833,VALID,92,VALID,0,
2000-10-04, 00:14:00,VALID,917.812,VALID,0,VALID,98.2976,VALID,0,VALID,19.6865,VALID,92,VALID,0,
2000-10-04, 00:15:00,VALID,917.82,VALID,0,VALID,98.2543,VALID,0,VALID,19.6731,VALID,92,VALID,0,
2000-10-04, 00:16:00,VALID,917.814,VALID,0,VALID,98.2327,VALID,0,VALID,19.6659,VALID,92,VALID,0,
2000-10-04, 00:17:00,VALID,917.801,VALID,0,VALID,98.2518,VALID,-0.0169808,VALID,19.6823,VALID,92,VALID,0,
2000-10-04, 00:18:00,VALID,917.797,VALID,0,VALID,98.2632,VALID,0,VALID,19.6823,VALID,92,VALID,0,
2000-10-04, 00:19:00,VALID,917.801,VALID,0,VALID,98.2963,VALID,0,VALID,19.7017,VALID,92,VALID,0,
2000-10-04, 00:20:00,VALID,917.812,VALID,0,VALID,98.2785,VALID,-0.0339617,VALID,19.7049,VALID,92,VALID,0,
2000-10-04, 00:21:00,VALID,917.81,VALID,0,VALID,98.2671,VALID,0,VALID,19.7149,VALID,92,VALID,0,
2000-10-04, 00:22:00,VALID,917.809,VALID,0,VALID,98.2353,VALID,0,VALID,19.7054,VALID,92,VALID,0,
2000-10-04, 00:23:00,VALID,917.826,VALID,0,VALID,98.1704,VALID,0,VALID,19.6826,VALID,92,VALID,0,
2000-10-04, 00:24:00,VALID,917.832,VALID,0,VALID,98.1488,VALID,-0.0169808,VALID,19.6734,VALID,92,VALID,0,
2000-10-04, 00:25:00,VALID,917.836,VALID,0,VALID,98.1691,VALID,-0.0169808,VALID,19.6565,VALID,92,VALID,0,
2000-10-04, 00:26:00,VALID,917.838,VALID,0,VALID,98.2073,VALID,0,VALID,19.6575,VALID,65,VALID,0,
2000-10-04, 00:27:00,VALID,917.828,VALID,0,VALID,98.3434,VALID,-0.0169808,VALID,19.6729,VALID,64,VALID,0,
2000-10-04, 00:28:00,VALID,917.82,VALID,0,VALID,98.4235,VALID,0,VALID,19.7049,VALID,87,VALID,0,
2000-10-04, 00:29:00,VALID,917.801,VALID,0,VALID,98.4324,VALID,0,VALID,19.7114,VALID,89,VALID,0,
2000-10-04, 00:30:00,VALID,917.769,VALID,0,VALID,98.4286,VALID,-0.0169808,VALID,19.7213,VALID,87,VALID,0,
2000-10-04, 00:31:00,VALID,917.728,VALID,0,VALID,98.3688,VALID,0,VALID,19.7276,VALID,96,VALID,0,
2000-10-04, 00:32:00,VALID,917.696,VALID,0,VALID,98.2899,VALID,0,VALID,19.7149,VALID,103,VALID,0.299753,
2000-10-04, 00:33:00,VALID,917.675,VALID,0,VALID,98.2531,VALID,-0.0169808,VALID,19.7079,VALID,100,VALID,0.800887,
2000-10-04, 00:34:00,VALID,917.653,VALID,0,VALID,98.1882,VALID,0,VALID,19.6885,VALID,102,VALID,0.869391,
2000-10-04, 00:35:00,VALID,917.659,VALID,0,VALID,98.159,VALID,0.0169808,VALID,19.6893,VALID,100,VALID,0.555147,
2000-10-04, 00:36:00,VALID,917.645,VALID,0,VALID,98.0776,VALID,0,VALID,19.6629,VALID,111,VALID,0.441707,
2000-10-04, 00:37:00,VALID,917.635,VALID,0,VALID,97.9975,VALID,0.0169808,VALID,19.6473,VALID,103,VALID,0.576891,
2000-10-04, 00:38:00,VALID,917.632,VALID,0,VALID,98.0038,VALID,0,VALID,19.6339,VALID,98,VALID,0.413628,
2000-10-04, 00:39:00,VALID,917.614,VALID,0,VALID,97.9695,VALID,0,VALID,19.6403,VALID,99,VALID,0.619299,
2000-10-04, 00:40:00,VALID,917.609,VALID,0,VALID,97.9797,VALID,0,VALID,19.6272,VALID,100,VALID,0.313086,
2000-10-04, 00:41:00,VALID,917.605,VALID,0,VALID,97.9136,VALID,0,VALID,19.6279,VALID,101,VALID,0.14926,
2000-10-04, 00:42:00,VALID,917.586,VALID,0,VALID,97.8423,VALID,0,VALID,19.5981,VALID,116,VALID,0,
2000-10-04, 00:43:00,VALID,917.563,VALID,0,VALID,97.8055,VALID,-0.0169808,VALID,19.5854,VALID,108,VALID,0,
2000-10-04, 00:44:00,VALID,917.542,VALID,0,VALID,97.8029,VALID,-0.0169808,VALID,19.5757,VALID,100,VALID,0,
2000-10-04, 00:45:00,VALID,917.522,VALID,0,VALID,97.7406,VALID,0,VALID,19.563,VALID,49,VALID,0,
2000-10-04, 00:46:00,VALID,917.5,VALID,0,VALID,97.719,VALID,0,VALID,19.527,VALID,53,VALID,0,
2000-10-04, 00:47:00,VALID,917.47,VALID,0,VALID,97.7902,VALID,0,VALID,19.5208,VALID,76,VALID,0,
2000-10-04, 00:48:00,VALID,917.461,VALID,0,VALID,97.8843,VALID,0,VALID,19.534,VALID,94,VALID,0,
2000-10-04, 00:49:00,VALID,917.453,VALID,0,VALID,97.9046,VALID,-0.0169808,VALID,19.5146,VALID,92,VALID,0.646959,
2000-10-04, 00:50:00,VALID,917.444,VALID,0,VALID,98.014,VALID,0,VALID,19.5407,VALID,100,VALID,0.912538,
2000-10-04, 00:51:00,VALID,917.421,VALID,0,VALID,98.0382,VALID,0,VALID,19.5238,VALID,85,VALID,0.549696,
2000-10-04, 00:52:00,VALID,917.385,VALID,0,VALID,98.0382,VALID,-0.0169808,VALID,19.5238,VALID,91,VALID,1.01719,
2000-10-04, 00:53:00,VALID,917.326,VALID,0,VALID,98.028,VALID,0,VALID,19.5178,VALID,88,VALID,0.872396,
2000-10-04, 00:54:00,VALID,917.295,VALID,0,VALID,98.0636,VALID,-0.0169808,VALID,19.5079,VALID,95,VALID,0.475391,
2000-10-04, 00:55:00,VALID,917.253,VALID,0,VALID,98.0979,VALID,-0.0169808,VALID,19.5076,VALID,59,VALID,0.574013,
2000-10-04, 00:56:00,VALID,917.224,VALID,0,VALID,98.0572,VALID,0,VALID,19.4853,VALID,46,VALID,0.556127,
2000-10-04, 00:57:00,VALID,917.203,VALID,0,VALID,98.1068,VALID,0,VALID,19.4825,VALID,88,VALID,0.552787,
2000-10-04, 00:58:00,VALID,917.202,VALID,0,VALID,98.2124,VALID,-0.0169808,VALID,19.4793,VALID,93,VALID,0.662695,
2000-10-04, 00:59:00,VALID,917.19,VALID,0,VALID,98.3039,VALID,0,VALID,19.489,VALID,88,VALID,0.192274,
2000-10-04, 01:00:00,VALID,917.176,VALID,0,VALID,98.3179,VALID,0.0169808,VALID,19.4758,VALID,80,VALID,0.243666,
2000-10-04, 01:01:00,VALID,917.137,VALID,0,VALID,98.323,VALID,-0.0169808,VALID,19.4763,VALID,51,VALID,0.415913,
2000-10-04, 01:02:01,VALID,917.092,VALID,0,VALID,98.3141,VALID,-0.0169808,VALID,19.4505,VALID,51,VALID,0.470881,
2000-10-04, 01:03:00,VALID,917.048,VALID,0,VALID,98.3751,VALID,-0.0339617,VALID,19.441,VALID,86,VALID,0.503289,
2000-10-04, 01:04:00,VALID,917.005,VALID,0,VALID,98.4286,VALID,0,VALID,19.437,VALID,97,VALID,0.180859,
2000-10-04, 01:05:00,VALID,916.987,VALID,0,VALID,98.4349,VALID,-0.0679233,VALID,19.4244,VALID,97,VALID,0.209293,
2000-10-04, 01:06:00,VALID,916.974,VALID,0,VALID,98.4069,VALID,-0.0169808,VALID,19.4013,VALID,88,VALID,0.108964,
2000-10-04, 01:07:00,VALID,916.98,VALID,0,VALID,98.3802,VALID,0,VALID,19.3791,VALID,88,VALID,0.0653045,
2000-10-04, 01:08:00,VALID,916.962,VALID,0,VALID,98.3484,VALID,-0.0679233,VALID,19.3697,VALID,85,VALID,0,
2000-10-04, 01:09:00,VALID,916.942,VALID,0,VALID,98.3573,VALID,-0.0509425,VALID,19.3764,VALID,100,VALID,0,
2000-10-04, 01:10:00,VALID,916.917,VALID,0,VALID,98.3383,VALID,-0.0339617,VALID,19.3699,VALID,140,VALID,0,
2000-10-04, 01:11:00,VALID,916.894,VALID,0,VALID,98.2874,VALID,-0.0169808,VALID,19.36,VALID,147,VALID,0,
2000-10-04, 01:12:00,VALID,916.858,VALID,0,VALID,98.2899,VALID,-0.0679233,VALID,19.357,VALID,147,VALID,0,
2000-10-04, 01:13:00,VALID,916.815,VALID,0,VALID,98.2899,VALID,-0.0339617,VALID,19.3401,VALID,145,VALID,0,
2000-10-04, 01:14:00,VALID,916.774,VALID,0,VALID,98.3332,VALID,0,VALID,19.3533,VALID,130,VALID,0,
2000-10-04, 01:15:00,VALID,916.745,VALID,0,VALID,98.3243,VALID,-0.0169808,VALID,19.3468,VALID,130,VALID,0,
2000-10-04, 01:16:00,VALID,916.717,VALID,0,VALID,98.3077,VALID,-0.0169808,VALID,19.3443,VALID,130,VALID,0,
2000-10-04, 01:17:00,VALID,916.708,VALID,0,VALID,98.2887,VALID,-0.0509425,VALID,19.3443,VALID,130,VALID,0,
2000-10-04, 01:18:01,VALID,916.697,VALID,0,VALID,98.3027,VALID,-0.0509425,VALID,19.3573,VALID,130,VALID,0,
2000-10-04, 01:19:01,VALID,916.702,VALID,0,VALID,98.3077,VALID,0,VALID,19.3674,VALID,130,VALID,0,
2000-10-04, 01:20:00,VALID,916.711,VALID,0,VALID,98.3344,VALID,-0.0169808,VALID,19.3667,VALID,180,VALID,0,
2000-10-04, 01:21:00,VALID,916.733,VALID,0,VALID,98.3421,VALID,0,VALID,19.3993,VALID,236,VALID,0,
2000-10-04, 01:22:00,VALID,916.758,VALID,0,VALID,98.3192,VALID,0,VALID,19.3955,VALID,243,VALID,0,
2000-10-04, 01:23:01,VALID,916.773,VALID,0,VALID,98.3154,VALID,-0.0169808,VALID,19.4092,VALID,261,VALID,0,
2000-10-04, 01:24:00,VALID,916.769,VALID,0,VALID,98.3332,VALID,-0.0339617,VALID,19.408,VALID,264,VALID,0,
2000-10-04, 01:25:01,VALID,916.75,VALID,0,VALID,98.2632,VALID,-0.0339617,VALID,19.4216,VALID,247,VALID,0,
2000-10-04, 01:26:00,VALID,916.744,VALID,0,VALID,98.2022,VALID,0,VALID,19.4184,VALID,249,VALID,0,
2000-10-04, 01:27:01,VALID,916.739,VALID,0,VALID,98.159,VALID,0,VALID,19.4117,VALID,253,VALID,0,
2000-10-04, 01:28:00,VALID,916.721,VALID,0,VALID,98.1412,VALID,-0.0169808,VALID,19.4219,VALID,262,VALID,0,
2000-10-04, 01:29:01,VALID,916.71,VALID,0,VALID,98.1399,VALID,-0.0339617,VALID,19.4221,VALID,262,VALID,0,
2000-10-04, 01:30:00,VALID,916.701,VALID,0,VALID,98.1272,VALID,-0.0169808,VALID,19.4348,VALID,262,VALID,0,
2000-10-04, 01:31:00,VALID,916.698,VALID,0,VALID,98.1106,VALID,-0.0169808,VALID,19.4574,VALID,226,VALID,0,
2000-10-04, 01:32:00,VALID,916.709,VALID,0,VALID,98.1068,VALID,-0.0169808,VALID,19.4708,VALID,145,VALID,0,
2000-10-04, 01:33:00,VALID,916.705,VALID,0,VALID,98.0547,VALID,-0.0339617,VALID,19.4798,VALID,145,VALID,0,
2000-10-04, 01:34:01,VALID,916.728,VALID,0,VALID,97.9301,VALID,0,VALID,19.4927,VALID,145,VALID,0,
2000-10-04, 01:35:00,VALID,916.749,VALID,0,VALID,97.7673,VALID,0,VALID,19.4766,VALID,153,VALID,0,
2000-10-04, 01:36:01,VALID,916.785,VALID,0,VALID,97.7393,VALID,0,VALID,19.4798,VALID,215,VALID,0,
2000-10-04, 01:37:00,VALID,916.823,VALID,0,VALID,97.7686,VALID,0,VALID,19.4795,VALID,235,VALID,0,
2000-10-04, 01:38:01,VALID,916.849,VALID,0,VALID,97.7711,VALID,0,VALID,19.4833,VALID,222,VALID,0.661458,
2000-10-04, 01:39:00,VALID,916.862,VALID,0,VALID,97.8156,VALID,-0.0509425,VALID,19.4835,VALID,222,VALID,0.728766,
2000-10-04, 01:40:01,VALID,916.87,VALID,0,VALID,97.8767,VALID,-0.0509425,VALID,19.4805,VALID,228,VALID,0.699958,
2000-10-04, 01:41:00,VALID,916.871,VALID,0,VALID,97.9186,VALID,-0.0339617,VALID,19.4805,VALID,230,VALID,0.918069,
2000-10-04, 01:42:00,VALID,916.86,VALID,0,VALID,97.9708,VALID,-0.0509425,VALID,19.4674,VALID,211,VALID,0.843099,
2000-10-04, 01:43:01,VALID,916.849,VALID,0,VALID,97.986,VALID,0,VALID,19.4415,VALID,206,VALID,0.579644,
2000-10-04, 01:44:00,VALID,916.842,VALID,0,VALID,98.0115,VALID,-0.0509425,VALID,19.4189,VALID,209,VALID,0.562891,
2000-10-04, 01:45:00,VALID,916.835,VALID,0,VALID,98.0967,VALID,-0.0169808,VALID,19.4184,VALID,232,VALID,0.513091,
2000-10-04, 01:46:00,VALID,916.839,VALID,0,VALID,98.1361,VALID,0.0849042,VALID,19.4169,VALID,208,VALID,0.710938,
2000-10-04, 01:47:00,VALID,916.833,VALID,0,VALID,98.1501,VALID,0.0849042,VALID,19.4169,VALID,203,VALID,0.730674,
2000-10-04, 01:48:00,VALID,916.803,VALID,0,VALID,98.1869,VALID,0.0849042,VALID,19.4177,VALID,172,VALID,1.08079,
2000-10-04, 01:49:00,VALID,916.764,VALID,0,VALID,98.2289,VALID,0.101885,VALID,19.3913,VALID,158,VALID,1.19611,
2000-10-04, 01:50:01,VALID,916.702,VALID,0,VALID,98.3561,VALID,0.101885,VALID,19.3816,VALID,105,VALID,1.3087,
2000-10-04, 01:51:00,VALID,916.677,VALID,0,VALID,98.3993,VALID,0.0849042,VALID,19.369,VALID,110,VALID,1.21602,
2000-10-04, 01:52:00,VALID,916.671,VALID,0,VALID,98.4069,VALID,0.0849042,VALID,19.3493,VALID,112,VALID,1.18309,
2000-10-04, 01:53:00,VALID,916.673,VALID,0,VALID,98.4133,VALID,0.0339617,VALID,19.32,VALID,128,VALID,0.54852,
2000-10-04, 01:54:01,VALID,916.692,VALID,0,VALID,98.4438,VALID,0.0509425,VALID,19.3138,VALID,113,VALID,0.282728,
2000-10-04, 01:55:00,VALID,916.698,VALID,0,VALID,98.4896,VALID,0.0169808,VALID,19.3011,VALID,109,VALID,0.00641026,
2000-10-04, 01:56:00,VALID,916.714,VALID,0,VALID,98.5188,VALID,0.0169808,VALID,19.2852,VALID,205,VALID,0.0866268,
2000-10-04, 01:57:01,VALID,916.716,VALID,0,VALID,98.5443,VALID,0.0679233,VALID,19.285,VALID,259,VALID,0,
2000-10-04, 01:58:00,VALID,916.711,VALID,0,VALID,98.5735,VALID,0.0509425,VALID,19.2758,VALID,259,VALID,0,
2000-10-04, 01:59:01,VALID,916.731,VALID,0,VALID,98.5926,VALID,0.0509425,VALID,19.2686,VALID,259,VALID,0.0668403,
2000-10-04, 02:00:00,VALID,916.736,VALID,0,VALID,98.6129,VALID,0.0509425,VALID,19.2788,VALID,272,VALID,0.0698902,
2000-10-04, 02:01:00,VALID,916.753,VALID,0,VALID,98.6333,VALID,-0.0509425,VALID,19.2864,VALID,279,VALID,0.0521484,
2000-10-04, 02:02:00,VALID,916.753,VALID,0,VALID,98.6549,VALID,-0.0509425,VALID,19.2797,VALID,278,VALID,0,
2000-10-04, 02:03:00,VALID,916.747,VALID,0,VALID,98.6752,VALID,-0.0339617,VALID,19.2892,VALID,251,VALID,0.11212,
2000-10-04, 02:04:00,VALID,916.743,VALID,0,VALID,98.6651,VALID,-0.0509425,VALID,19.3031,VALID,237,VALID,0.0404647,
2000-10-04, 02:05:00,VALID,916.721,VALID,0,VALID,98.6295,VALID,-0.0339617,VALID,19.2867,VALID,177,VALID,0,
2000-10-04, 02:06:00,VALID,916.716,VALID,0,VALID,98.5875,VALID,-0.0849042,VALID,19.2643,VALID,176,VALID,0,
2000-10-04, 02:07:00,VALID,916.695,VALID,0,VALID,98.604,VALID,-0.0509425,VALID,19.2477,VALID,214,VALID,0.230997,
2000-10-04, 02:08:00,VALID,916.689,VALID,0,VALID,98.646,VALID,-0.0509425,VALID,19.2474,VALID,232,VALID,0.64383,
2000-10-04, 02:09:01,VALID,916.687,VALID,0,VALID,98.6791,VALID,-0.0169808,VALID,19.2576,VALID,232,VALID,0.715583,
2000-10-04, 02:10:01,VALID,916.689,VALID,0,VALID,98.6829,VALID,-0.0679233,VALID,19.2509,VALID,234,VALID,0.427365,
2000-10-04, 02:11:00,VALID,916.684,VALID,0,VALID,98.6981,VALID,-0.0509425,VALID,19.2638,VALID,234,VALID,0.439596,
2000-10-04, 02:12:00,VALID,916.697,VALID,0,VALID,98.707,VALID,-0.0169808,VALID,19.2738,VALID,230,VALID,0.736111,
2000-10-04, 02:13:01,VALID,916.713,VALID,0,VALID,98.7058,VALID,-0.0169808,VALID,19.2802,VALID,228,VALID,0.616211,
2000-10-04, 02:14:00,VALID,916.716,VALID,0,VALID,98.7032,VALID,-0.0169808,VALID,19.28,VALID,230,VALID,0.76903,
2000-10-04, 02:15:01,VALID,916.727,VALID,0,VALID,98.7223,VALID,-0.0339617,VALID,19.2966,VALID,224,VALID,0.435352,
2000-10-04, 02:16:01,VALID,916.723,VALID,0,VALID,98.7032,VALID,0.0339617,VALID,19.2889,VALID,244,VALID,0.420436,
2000-10-04, 02:17:01,VALID,916.735,VALID,0,VALID,98.7045,VALID,0.0169808,VALID,19.2852,VALID,250,VALID,0.616982,
2000-10-04, 02:18:00,VALID,916.73,VALID,0,VALID,98.6752,VALID,0,VALID,19.282,VALID,249,VALID,0.195524,
2000-10-04, 02:19:00,VALID,916.732,VALID,0,VALID,98.693,VALID,0,VALID,19.2817,VALID,280,VALID,0.265234,
2000-10-04, 02:20:00,VALID,916.737,VALID,0,VALID,98.6841,VALID,0.0169808,VALID,19.2621,VALID,311,VALID,0.488281,
2000-10-04, 02:21:01,VALID,916.734,VALID,0,VALID,98.6892,VALID,0,VALID,19.2499,VALID,328,VALID,0.263302,
2000-10-04, 02:22:00,VALID,916.718,VALID,0,VALID,98.7287,VALID,0.0169808,VALID,19.2499,VALID,317,VALID,0.00945724,
2000-10-04, 02:23:01,VALID,916.701,VALID,0,VALID,98.7566,VALID,0.0169808,VALID,19.2465,VALID,356,VALID,0.14607,
2000-10-04, 02:24:00,VALID,916.68,VALID,0,VALID,98.7782,VALID,0.0169808,VALID,19.2502,VALID,44,VALID,0.325658,
2000-10-04, 02:25:00,VALID,916.665,VALID,0,VALID,98.8316,VALID,0.0339617,VALID,19.2624,VALID,79,VALID,0,
2000-10-04, 02:26:01,VALID,916.664,VALID,0,VALID,98.7986,VALID,0,VALID,19.243,VALID,79,VALID,0,
2000-10-04, 02:27:01,VALID,916.675,VALID,0,VALID,98.7808,VALID,0.0339617,VALID,19.2398,VALID,79,VALID,0,
2000-10-04, 02:28:00,VALID,916.664,VALID,0,VALID,98.7541,VALID,0.0169808,VALID,19.24,VALID,79,VALID,0,
2000-10-04, 02:29:00,VALID,916.649,VALID,0,VALID,98.7617,VALID,0.0169808,VALID,19.2462,VALID,79,VALID,0,
2000-10-04, 02:30:01,VALID,916.637,VALID,0,VALID,98.7388,VALID,0.0339617,VALID,19.2432,VALID,79,VALID,0,
2000-10-04, 02:31:00,VALID,916.634,VALID,0,VALID,98.7147,VALID,-0.0679233,VALID,19.2606,VALID,86,VALID,0,
2000-10-04, 02:32:00,VALID,916.635,VALID,0,VALID,98.7007,VALID,-0.101885,VALID,19.274,VALID,97,VALID,0.0291016,
2000-10-04, 02:33:01,VALID,916.628,VALID,0,VALID,98.6485,VALID,-0.101885,VALID,19.2641,VALID,106,VALID,0.665625,
2000-10-04, 02:34:00,VALID,916.631,VALID,0,VALID,98.5862,VALID,-0.0849042,VALID,19.2479,VALID,110,VALID,0.69299,
2000-10-04, 02:35:01,VALID,916.643,VALID,0,VALID,98.585,VALID,-0.0849042,VALID,19.2419,VALID,124,VALID,0.59889,
2000-10-04, 02:36:01,VALID,916.63,VALID,0,VALID,98.6078,VALID,-0.0509425,VALID,19.2283,VALID,126,VALID,0.703776,
2000-10-04, 02:37:01,VALID,916.616,VALID,0,VALID,98.5875,VALID,-0.101885,VALID,19.2193,VALID,120,VALID,0.923478,
2000-10-04, 02:38:01,VALID,916.609,VALID,0,VALID,98.5506,VALID,-0.101885,VALID,19.2029,VALID,122,VALID,0.973067,
2000-10-04, 02:39:01,VALID,916.587,VALID,0,VALID,98.5557,VALID,-0.101885,VALID,19.1865,VALID,123,VALID,0.916295,
2000-10-04, 02:40:01,VALID,916.553,VALID,0,VALID,98.5519,VALID,-0.101885,VALID,19.1736,VALID,123,VALID,0.847756,
2000-10-04, 02:41:01,VALID,916.525,VALID,0,VALID,98.5328,VALID,-0.0679233,VALID,19.154,VALID,139,VALID,0.9375,
2000-10-04, 02:42:01,VALID,916.503,VALID,0,VALID,98.4934,VALID,-0.101885,VALID,19.1512,VALID,165,VALID,0.859164,
2000-10-04, 02:43:01,VALID,916.479,VALID,0,VALID,98.5112,VALID,-0.0679233,VALID,19.1249,VALID,181,VALID,0.843544,
2000-10-04, 02:44:01,VALID,916.466,VALID,0,VALID,98.5608,VALID,-0.0849042,VALID,19.1155,VALID,213,VALID,0.815173,
2000-10-04, 02:45:01,VALID,916.45,VALID,0,VALID,98.6307,VALID,-0.0509425,VALID,19.109,VALID,213,VALID,0.70827,
2000-10-04, 02:46:01,VALID,916.423,VALID,0,VALID,98.6613,VALID,-0.0679233,VALID,19.0991,VALID,187,VALID,0.669671,
2000-10-04, 02:47:01,VALID,916.392,VALID,0,VALID,98.7083,VALID,-0.101885,VALID,19.0896,VALID,163,VALID,0.919671,
2000-10-04, 02:48:01,VALID,916.37,VALID,0,VALID,98.7503,VALID,-0.0679233,VALID,19.0926,VALID,140,VALID,0.924831,
2000-10-04, 02:49:01,VALID,916.341,VALID,0,VALID,98.7821,VALID,-0.0849042,VALID,19.1025,VALID,143,VALID,0.904883,
2000-10-04, 02:50:01,VALID,916.32,VALID,0,VALID,98.791,VALID,-0.101885,VALID,19.1055,VALID,151,VALID,0.88557,
2000-10-04, 02:51:01,VALID,916.306,VALID,0,VALID,98.7439,VALID,-0.0849042,VALID,19.106,VALID,161,VALID,1.20313,
2000-10-04, 02:52:01,VALID,916.292,VALID,0,VALID,98.6473,VALID,-0.101885,VALID,19.1058,VALID,173,VALID,1.13862,
2000-10-04, 02:53:01,VALID,916.253,VALID,0,VALID,98.5799,VALID,-0.0849042,VALID,19.1115,VALID,186,VALID,0.971423,
2000-10-04, 02:54:01,VALID,916.239,VALID,0,VALID,98.5048,VALID,-0.101885,VALID,19.1413,VALID,181,VALID,0.921053,
2000-10-04, 02:55:01,VALID,916.214,VALID,0,VALID,98.4273,VALID,-0.0509425,VALID,19.1185,VALID,181,VALID,0.984961,
2000-10-04, 02:56:01,VALID,916.202,VALID,0,VALID,98.379,VALID,-0.0849042,VALID,19.1227,VALID,176,VALID,0.977734,
2000-10-04, 02:57:01,VALID,916.198,VALID,0,VALID,98.3764,VALID,-0.0509425,VALID,19.0958,VALID,191,VALID,0.817308,
2000-10-04, 02:58:01,VALID,916.199,VALID,0,VALID,98.4095,VALID,-0.0849042,VALID,19.0991,VALID,207,VALID,0.976768,
2000-10-04, 02:59:01,VALID,916.185,VALID,0,VALID,98.4603,VALID,-0.101885,VALID,19.0931,VALID,210,VALID,1.08594,
2000-10-04, 03:00:01,VALID,916.155,VALID,0,VALID,98.4934,VALID,-0.0509425,VALID,19.1023,VALID,193,VALID,0.985176,
2000-10-04, 03:01:01,VALID,916.134,VALID,0,VALID,98.5163,VALID,0.0849042,VALID,19.0815,VALID,182,VALID,0.894215,
2000-10-04, 03:02:00,VALID,916.131,VALID,0,VALID,98.5417,VALID,0.101885,VALID,19.0783,VALID,203,VALID,0.864183,
2000-10-04, 03:03:00,VALID,916.098,VALID,0,VALID,98.5811,VALID,0.0849042,VALID,19.0817,VALID,212,VALID,0.463759,
2000-10-04, 03:04:00,VALID,916.086,VALID,0,VALID,98.618,VALID,0.101885,VALID,19.0713,VALID,194,VALID,0.404948,
2000-10-04, 03:05:00,VALID,916.052,VALID,0,VALID,98.6447,VALID,0.0509425,VALID,19.0748,VALID,186,VALID,0.613281,
2000-10-04, 03:06:00,VALID,916.048,VALID,0,VALID,98.6625,VALID,0.0679233,VALID,19.0785,VALID,227,VALID,0.874155,
2000-10-04, 03:07:00,VALID,916.052,VALID,0,VALID,98.7083,VALID,0.0509425,VALID,19.0815,VALID,210,VALID,0.923077,
2000-10-04, 03:08:00,VALID,916.036,VALID,0,VALID,98.7134,VALID,0.101885,VALID,19.0785,VALID,181,VALID,0.931332,
2000-10-04, 03:09:00,VALID,916.034,VALID,0,VALID,98.721,VALID,0.0679233,VALID,19.075,VALID,178,VALID,0.728849,
2000-10-04, 03:10:00,VALID,916.024,VALID,0,VALID,98.7465,VALID,0.0169808,VALID,19.0723,VALID,188,VALID,0.691707,
2000-10-04, 03:11:00,VALID,916.031,VALID,0,VALID,98.7935,VALID,0.101885,VALID,19.0651,VALID,186,VALID,0.732264,
2000-10-04, 03:12:00,VALID,916.019,VALID,0,VALID,98.8266,VALID,0.0849042,VALID,19.0623,VALID,195,VALID,0.70625,
2000-10-04, 03:13:00,VALID,916.013,VALID,0,VALID,98.8584,VALID,0.101885,VALID,19.0591,VALID,196,VALID,0.514423,
2000-10-04, 03:14:00,VALID,915.99,VALID,0,VALID,98.8952,VALID,0.0509425,VALID,19.0559,VALID,191,VALID,0,
2000-10-04, 03:15:00,VALID,915.968,VALID,0,VALID,98.9143,VALID,0.0509425,VALID,19.0531,VALID,186,VALID,0,
2000-10-04, 03:16:00,VALID,915.96,VALID,0,VALID,98.9525,VALID,-0.0339617,VALID,19.0409,VALID,189,VALID,0,
2000-10-04, 03:17:00,VALID,915.962,VALID,0,VALID,98.9766,VALID,-0.0339617,VALID,19.0382,VALID,194,VALID,0,
2000-10-04, 03:18:00,VALID,915.975,VALID,0,VALID,99.0097,VALID,-0.0169808,VALID,19.028,VALID,194,VALID,0.0142228,
2000-10-04, 03:19:00,VALID,915.969,VALID,0,VALID,99.0275,VALID,-0.0169808,VALID,19.0282,VALID,199,VALID,0.794408,
2000-10-04, 03:20:00,VALID,915.985,VALID,0,VALID,99.0453,VALID,-0.0339617,VALID,19.0282,VALID,185,VALID,0.868056,
2000-10-04, 03:21:00,VALID,915.979,VALID,0,VALID,99.0758,VALID,-0.0169808,VALID,19.0148,VALID,149,VALID,0.765203,
2000-10-04, 03:22:00,VALID,915.959,VALID,0,VALID,99.0809,VALID,-0.0169808,VALID,19.0059,VALID,146,VALID,0.904297,
2000-10-04, 03:23:00,VALID,915.95,VALID,0,VALID,99.0936,VALID,-0.0169808,VALID,19.0022,VALID,144,VALID,0.856702,
2000-10-04, 03:24:00,VALID,915.924,VALID,0,VALID,99.0898,VALID,-0.0339617,VALID,19.0026,VALID,174,VALID,0.512458,
2000-10-04, 03:25:00,VALID,915.92,VALID,0,VALID,99.1076,VALID,-0.0339617,VALID,18.9895,VALID,217,VALID,0.761018,
2000-10-04, 03:26:00,VALID,915.915,VALID,0,VALID,99.1394,VALID,-0.0509425,VALID,18.9865,VALID,225,VALID,0.872596,
2000-10-04, 03:27:00,VALID,915.907,VALID,0,VALID,99.1597,VALID,-0.0679233,VALID,18.9967,VALID,218,VALID,0.856908,
2000-10-04, 03:28:00,VALID,915.888,VALID,0,VALID,99.1724,VALID,0,VALID,18.9865,VALID,216,VALID,0.931588,
2000-10-04, 03:29:00,VALID,915.863,VALID,0,VALID,99.175,VALID,-0.0169808,VALID,18.9934,VALID,205,VALID,0.913862,
2000-10-04, 03:30:00,VALID,915.857,VALID,0,VALID,99.1902,VALID,-0.0339617,VALID,18.9736,VALID,208,VALID,0.506123,
2000-10-04, 03:31:00,VALID,915.826,VALID,0,VALID,99.2004,VALID,0,VALID,18.9666,VALID,150,VALID,0.799198,
2000-10-04, 03:32:00,VALID,915.795,VALID,0,VALID,99.2017,VALID,-0.0339617,VALID,18.9602,VALID,158,VALID,0.777058,
2000-10-04, 03:33:00,VALID,915.797,VALID,0,VALID,99.1763,VALID,-0.0169808,VALID,18.9343,VALID,156,VALID,0.875217,
2000-10-04, 03:34:00,VALID,915.808,VALID,0,VALID,99.1991,VALID,-0.0339617,VALID,18.9179,VALID,164,VALID,1.04922,
2000-10-04, 03:35:00,VALID,915.803,VALID,0,VALID,99.2208,VALID,-0.0849042,VALID,18.9251,VALID,164,VALID,1.13682,
2000-10-04, 03:36:00,VALID,915.791,VALID,0,VALID,99.2411,VALID,-0.0849042,VALID,18.9154,VALID,169,VALID,1.15176,
2000-10-04, 03:37:00,VALID,915.777,VALID,0,VALID,99.2653,VALID,-0.0679233,VALID,18.909,VALID,174,VALID,0.887541,